Regional Weather Roundup
Issued by NWS

Home | Current Version | Previous Version | Graphics & Text | Print | Product List | Glossary On
Versions: 1 2 3 4 5 6 7 8 9 10 11 12 13 14 15 16 17 18 19 20 21 22 23 24 25 26 27 28 29 30 31 32 33 34 35 36 37 38 39 40 41 42 43 44 45 46 47 48 49 50
000
ASUS43 KMKX 301211
RWRWI

WISCONSIN REGIONAL WEATHER ROUNDUP
NATIONAL WEATHER SERVICE MILWAUKEE/SULLIVAN WI
700 AM CDT THU MAR 30 2017

NOTE: "FAIR" INDICATES FEW OR NO CLOUDS BELOW 12,000 FEET WITH NO
SIGNIFICANT WEATHER AND/OR OBSTRUCTIONS TO VISIBILITY.

WIZ001-002-006>008-014>016-023>028-301300-
NORTHWEST WISCONSIN

CITY           SKY/WX    TMP DP  RH WIND       PRES   REMARKS
SUPERIOR ARPT  CLOUDY    33  32  95 NE12      30.05F WCI  25
6HR MIN TEMP:  33; 6HR MAX TEMP:  34;

ASHLAND        CLOUDY    31  29  92 CALM      30.05F
6HR MIN TEMP:  29; 6HR MAX TEMP:  31;

HAYWARD        CLOUDY    36  26  67 NE6       30.01F WCI  31
6HR MIN TEMP:  32; 6HR MAX TEMP:  36;

SIREN          CLOUDY    33  29  85 CALM      30.01S
6HR MIN TEMP:  33; 6HR MAX TEMP:  36;

CUMBERLAND     CLOUDY    36  28  75 NE8       29.98S WCI  29
RICE LAKE      CLOUDY    38  30  72 CALM      29.99F
6HR MIN TEMP:  38; 6HR MAX TEMP:  40;

CHETEK         CLOUDY    37  29  73 NE5       29.97F WCI  33
6HR MIN TEMP:  37; 6HR MAX TEMP:  39;

LADYSMITH      CLOUDY    37  30  75 NE8       30.00F WCI  31
6HR MIN TEMP:  37; 6HR MAX TEMP:  39;

EAU CLAIRE     LGT RAIN  37  34  89 E15       29.95F FOG     WCI  28
6HR MIN TEMP:  36; 6HR MAX TEMP:  39; 6HR PCP:  0.01;

MENOMONIE      CLOUDY    37  34  89 NE10      29.96F WCI  30
6HR MIN TEMP:  37; 6HR MAX TEMP:  40; 6HR PCP:  0.01;

NEW RICHMOND   CLOUDY    37  33  86 E10G16    29.96F FOG     WCI  29
6HR MIN TEMP:  37; 6HR MAX TEMP:  40;

OSCEOLA        CLOUDY    39  33  79 NE7       30.00S WCI  34
6HR MIN TEMP:  39; 6HR MAX TEMP:  42;

$$

WIZ003>005-009-010-017-018-301300-
NORTH CENTRAL WISCONSIN

CITY           SKY/WX    TMP DP  RH WIND       PRES   REMARKS
MANITOWISH WTR CLOUDY    33  26  77 NE3       30.02S
6HR MIN TEMP:  33; 6HR MAX TEMP:  37;

ARBOR VITAE    CLOUDY    34  28  77 E7        30.00F WCI  28
6HR MIN TEMP:  34; 6HR MAX TEMP:  37;

WOODRUFF       CLOUDY    34  28  77 E7        30.00F WCI  28
6HR MIN TEMP:  34; 6HR MAX TEMP:  37;

RHINELANDER    CLOUDY    34  27  75 E8        30.02S WCI  27
6HR MIN TEMP:  34; 6HR MAX TEMP:  36;

EAGLE RIVER    CLOUDY    32  26  77 E6        30.02F WCI  26
6HR MIN TEMP:  32; 6HR MAX TEMP:  34;

LAND O LAKES   CLOUDY    32  27  79 E7        30.04F WCI  26
6HR MIN TEMP:  32; 6HR MAX TEMP:  36;

PHILLIPS       CLOUDY    34  29  82 E5        29.99F WCI  30
6HR MIN TEMP:  34; 6HR MAX TEMP:  37;

TOMAHAWK       CLOUDY    33  27  77 NE5       30.01S WCI  29
6HR MIN TEMP:  33; 6HR MAX TEMP:  36;

MEDFORD        DRIZZLE   32  31  94 NE10      29.97R WCI  24
6HR MIN TEMP:  32; 6HR MAX TEMP:  34;

MERRILL        CLOUDY    33  31  91 E7        30.00S WCI  27
6HR MIN TEMP:  33; 6HR MAX TEMP:  36;

$$

WIZ029-030-035-036-043>047-301300-
CENTRAL WISCONSIN

CITY           SKY/WX    TMP DP  RH WIND       PRES   REMARKS
WAUSAU         CLOUDY    33  31  92 E10       29.97S WCI  25
6HR MIN TEMP:  32; 6HR MAX TEMP:  35; 6HR PCP: TRACE;

MOSINEE        CLOUDY    34  34 100 NE14      29.97F WCI  24
MARSHFIELD     CLOUDY    34  32  92 E13       29.95R WCI  25
6HR MIN TEMP:  34; 6HR MAX TEMP:  35; 6HR PCP: TRACE;

STEVENS POINT  CLOUDY    32  32 100 E12G20    29.97S WCI  23
6HR MIN TEMP:  32; 6HR MAX TEMP:  32;

WAUPACA        LGT RAIN  37  35  93 E7        29.99S WCI  31
6HR MIN TEMP:  36; 6HR MAX TEMP:  38; 6HR PCP:  0.03;

WAUTOMA        LGT RAIN  34  33  96 NE15      29.95F WCI  24
6HR MIN TEMP:  34; 6HR MAX TEMP:  36; 6HR PCP:  0.07;

WISC RAPIDS    CLOUDY    35  35 100 E16G22    29.96S WCI  25
6HR MIN TEMP:  34; 6HR MAX TEMP:  35; 6HR PCP:  0.08;

CAMP DOUGLAS   LGT RAIN  36  34  93 E13       29.91S FOG     WCI  27
6HR MIN TEMP:  35; 6HR MAX TEMP:  37; 6HR PCP:  0.04;

$$

WIZ011>013-019>022-031-037>040-048>050-301300-
NORTHEAST WISCONSIN

CITY           SKY/WX    TMP DP  RH WIND       PRES   REMARKS
ANTIGO         FLURRIES  31  31  97 E10G17    30.00F WCI  23
6HR MIN TEMP:  31; 6HR MAX TEMP:  33;

SHAWANO        LGT RAIN  36  33  90 E12       30.03S WCI  28
6HR MIN TEMP:  35; 6HR MAX TEMP:  37;

OCONTO         CLOUDY    33  31  94 NE9       30.05F WCI  25
6HR MIN TEMP:  33; 6HR MAX TEMP:  36;

STURGEON BAY   LGT RAIN  35  30  82 E8        30.09R WCI  29
6HR MIN TEMP:  34; 6HR MAX TEMP:  37;

GREEN BAY      LGT SNOW  34  34 100 NE13      30.02F FOG     WCI  25
6HR MIN TEMP:  35; 6HR MAX TEMP:  37; 6HR PCP:  0.02;

MANITOWOC      LGT RAIN  36  32  85 E10G16    30.01F WCI  28
6HR MIN TEMP:  35; 6HR MAX TEMP:  38; 6HR PCP:  0.05;

APPLETON       LGT SNOW  34  34 100 NE12G20   29.96F WCI  25
CLINTONVILLE   LGT SNOW  32  32 100 E13       30.01S WCI  22
OSHKOSH        MIX PCPN  35  31  85 E15G25    29.95F WCI  25
6HR MIN TEMP:  34; 6HR MAX TEMP:  38; 6HR PCP:  0.08;

$$

WIZ032>034-041-042-053>061-301300-
SOUTHWEST WISCONSIN

CITY           SKY/WX    TMP DP  RH WIND       PRES   REMARKS
LA CROSSE      CLOUDY    39  36  89 E15       29.88F FOG     WCI  31
6HR MIN TEMP:  39; 6HR MAX TEMP:  40; 6HR PCP:  0.08;

SPARTA         CLOUDY    36  35  96 NE14G21   29.91S FOG     WCI  27
6HR MIN TEMP:  35; 6HR MAX TEMP:  37; 6HR PCP:  0.04;

VIROQUA        CLOUDY    37  37  99 E16G22    29.85S WCI  27
6HR MIN TEMP:  35; 6HR MAX TEMP:  37;

BOSCOBEL       CLOUDY    41  41 100 E8        29.84S
6HR MIN TEMP:  39; 6HR MAX TEMP:  42; 6HR PCP:  0.07;

PRAIRIE DU CHI DRIZZLE   39  38  97 NE9       29.82F WCI  32
6HR MIN TEMP:  38; 6HR MAX TEMP:  39; 6HR PCP:  0.16;

PLATTEVILLE    CLOUDY    40  39  99 E20G26    29.78F WCI  30
6HR MIN TEMP:  40; 6HR MAX TEMP:  40; 6HR PCP:  0.08;

$$

WIZ056-057-062-063-064-067-068-301300-
SOUTH CENTRAL WISCONSIN

CITY           SKY/WX    TMP DP  RH WIND       PRES   REMARKS
REEDSBURG      CLOUDY    36  36 100 NE15G22   29.87F WCI  27
6HR MIN TEMP:  35; 6HR MAX TEMP:  37; 6HR PCP:  0.04;

BARABOO/DELLS  CLOUDY    36  35  95 NE15G21   29.87F WCI  26
6HR MIN TEMP:  36; 6HR MAX TEMP:  37; 6HR PCP:  0.03;

LONE ROCK      LGT RAIN  40  36  86 E16G26    29.85S WCI  31
6HR MIN TEMP:  38; 6HR MAX TEMP:  41; 6HR PCP:  0.07;

MINERAL POINT  CLOUDY    39  39 100 E18G25    29.80F WCI  30
MADISON        LGT RAIN  37  35  92 E16       29.86F WCI  28
6HR MIN TEMP:  37; 6HR MAX TEMP:  39; 6HR PCP:  0.17;

MIDDLETON      CLOUDY    39  39 100 E14G21    29.85F WCI  30
6HR MIN TEMP:  38; 6HR MAX TEMP:  40; 6HR PCP:  0.17;

WATERTOWN      LGT RAIN  37  37 100 E18G29    29.88S WCI  26
6HR MIN TEMP:  36; 6HR MAX TEMP:  38; 6HR PCP:  0.20;

MONROE         DRIZZLE   37  36  93 E17G26    29.78F WCI  28
JANESVILLE     LGT RAIN  39  39 100 E15G21    29.82F WCI  31
$$

WIZ051-052-058>065-066-070>072-301300-
SOUTHEAST WISCONSIN

CITY           SKY/WX    TMP DP  RH WIND       PRES   REMARKS
MILWAUKEE      LGT RAIN  38  34  85 E18       29.89F WCI  28
6HR MIN TEMP:  37; 6HR MAX TEMP:  40; 6HR PCP:  0.49;

WAUKESHA       LGT RAIN  36  34  93 E17G29    29.90F WCI  25
MILWAUKEE/TIMM RAIN      36  32  87 NE13G22   29.91F WCI  27
RACINE         LGT RAIN  37  35  92 E16G24    29.89F WCI  28
6HR MIN TEMP:  37; 6HR MAX TEMP:  39; 6HR PCP:  0.59;

KENOSHA        LGT RAIN  38  36  92 E20       29.86F FOG     WCI  28
6HR MIN TEMP:  38; 6HR MAX TEMP:  39; 6HR PCP:  0.53;

FOND DU LAC    LGT RAIN  35  30  82 E13       29.95F WCI  26
6HR MIN TEMP:  35; 6HR MAX TEMP:  39; 6HR PCP:  0.04;

SHEBOYGAN      FLURRIES  34  31  88 E15       29.98S WCI  24
6HR MIN TEMP:  34; 6HR MAX TEMP:  39; 6HR PCP:  0.16;

WEST BEND      LGT RAIN  34  34 100 E15       29.93F WCI  24
JUNEAU         LGT RAIN  34  33  94 NE15G23   29.91F WCI  24
6HR MIN TEMP:  34; 6HR MAX TEMP:  38; 6HR PCP:  0.03;

$$

LSZ147-162-301300-
LAKE SUPERIOR

STATION/POSITION TIME  TEMP    WIND        PRES    WAVE
                       AIR SEA DIR/SP/G            HT/PER
                 (UTC) (F)     (DEG/KT/KT) (MB)    (FT/S)
DEVILS ISLAND    1200   35      60/  9/ 10 1018.9F
PORT WING        1140   34      40/ 10/ 12 1017.9F
SAXON HARBOR     1140   31      CALM  /  2 1017.6F
$$

LMZ867-665-643>646-301300-
LAKE MICHIGAN

STATION/POSITION TIME  TEMP    WIND        PRES    WAVE
                       AIR SEA DIR/SP/G            HT/PER
                 (UTC) (F)     (DEG/KT/KT) (MB)    (FT/S)
CHAMBERS ISLAND  1140   34      50/  9/ 12


USA.gov is the U.S. government's official web portal to all federal, state and local government web resources and services.